Location: Newark
(49.8969°N, 3.3422°E)
Time: 02:35:07
(UTC+00:00)

Vanguard 2 Rocket - Pass Details

Date: 26 January 2020
Orbit: 553 x 3327 km, 32.9° (Epoch: 26 February)

Event Time Altitude Azimuth Distance (km) Brightness Sun altitude
Rises 06:35:34 0° 234° (SW) 3,061 9.3 -8.6°
Reaches altitude 10° 06:38:26 10° 212° (SSW) 2,395 8.9 -8.2°
Maximum altitude 06:41:58 17° 173° (S) 2,293 9.3 -7.7°
Drops below altitude 10° 06:46:34 10° 136° (SE) 3,281 11.0 -7.0°
Sets 06:51:34 0° 119° (ESE) 4,843 13.1 -6.2°
